Weather History for Vancouver, WA

Change the Weather History Date:

Saturday, December 10, 2011

  Actual Average Record
Temperature  
Mean Temperature 32 °F 41 °F  
Max Temperature 37 °F 47 °F 63 °F (1933)
Min Temperature 27 °F 35 °F 9 °F (1932)
Degree Days  
Heating Degree Days 33    
Month to date heating degree days 290  
Since 1 July heating degree days 1230  
Cooling Degree Days 0    
Month to date cooling degree days 0  
Year to date cooling degree days 339  
Moisture  
Dew Point 30 °F    
Average Humidity 78    
Maximum Humidity 92    
Minimum Humidity 64    
Precipitation  
Precipitation 0.02 in 0.20 in 1.83 in (1992)
Month to date precipitation 0.04 2.02  
Year to date precipitation 34.67 34.39  
Snow  
Snow 0.00 in - - ()
Month to date snowfall 0.0  
Since 1 July snowfall 0.0  
Snow Depth 0.00 in    
Sea Level Pressure  
Sea Level Pressure 30.19 in    
Wind  
Wind Speed 2 mph (SE)    
Max Wind Speed 13 mph    
Max Gust Speed 17 mph    
Visibility 4 miles    
Events Fog , Rain    
T = Trace of Precipitation, MM = Missing Value Source: NWS Daily Summary

Daily Weather History Graph

Daily Weather History Graph

Search for Another Location

Airport:

Trip Planner

Search our weather history database for the weather conditions in past years. The results will help you decide how hot, cold, wet, or windy it might be!

Date:

Astronomy

Dec. 10, 2011 Rise Set
Actual Time 7:40 AM PST 4:26 PM PST
Civil Twilight 7:05 AM PST 5:00 PM PST
Nautical Twilight 6:28 AM PST 5:38 PM PST
Astronomical Twilight 5:52 AM PST 6:14 PM PST
Moon 4:44 PM PST (12/10) 7:45 AM PST (12/10)
Length of Visible Light 9h 54m
Length of Day
8h 46m
Full, 100% of the Moon is Illuminated
Dec 10
Full
Dec 17
Last Quarter
Dec 24
New
Dec 31
First Quarter
Jan 8
Full

Hourly Weather History & Observations

Time (PST) Temp. Windchill Dew Point Humidity Pressure Visibility Wind Dir Wind Speed Gust Speed Precip Events Conditions
12:53 AM 35.1 °F 29.3 °F 28.0 °F 76% 30.21 in 10.0 mi SSE 6.9 mph - N/A   Clear
1:53 AM 33.1 °F 30.0 °F 27.0 °F 78% 30.21 in 10.0 mi Variable 3.5 mph - N/A   Clear
2:53 AM 28.9 °F - 25.0 °F 85% 30.22 in 8.0 mi Calm Calm - N/A   Clear
3:43 AM 28.4 °F - 24.8 °F 86% 30.20 in 5.0 mi Calm Calm - N/A   Scattered Clouds
3:53 AM 30.0 °F - 27.0 °F 88% 30.21 in 5.0 mi Calm Calm - N/A   Mostly Cloudy
4:24 AM 30.2 °F - 28.4 °F 93% 30.20 in 1.8 mi Calm Calm - N/A   Overcast
4:34 AM 30.2 °F - 28.4 °F 93% 30.20 in 1.2 mi Calm Calm - N/A   Overcast
4:43 AM 30.2 °F - 28.4 °F 93% 30.20 in 1.5 mi Calm Calm - N/A   Overcast
4:53 AM 28.9 °F 25.2 °F 27.0 °F 92% 30.20 in 1.0 mi SE 3.5 mph - N/A   Overcast
5:00 AM 30.2 °F - 28.4 °F 93% 30.20 in 0.5 mi Calm Calm - N/A Fog Light Freezing Fog
5:50 AM 30.2 °F - 28.4 °F 93% 30.20 in 1.0 mi Calm Calm - N/A   Overcast
5:53 AM 30.0 °F - 28.9 °F 96% 30.21 in 1.2 mi Calm Calm - N/A   Overcast
6:07 AM 30.2 °F - 28.4 °F 93% 30.21 in 2.0 mi Calm Calm - N/A   Overcast
6:17 AM 30.2 °F - 28.4 °F 93% 30.21 in 3.0 mi Calm Calm - N/A   Overcast
6:50 AM 30.2 °F 26.7 °F 28.4 °F 93% 30.21 in 2.5 mi ENE 3.5 mph - N/A   Overcast
6:53 AM 30.0 °F - 28.0 °F 92% 30.21 in 2.5 mi Calm Calm - N/A   Overcast
7:06 AM 30.2 °F 25.4 °F 28.4 °F 93% 30.21 in 4.0 mi ESE 4.6 mph - N/A   Overcast
7:53 AM 30.0 °F 25.2 °F 28.0 °F 92% 30.23 in 2.0 mi SE 4.6 mph - N/A   Overcast
8:53 AM 30.0 °F 22.4 °F 28.0 °F 92% 30.24 in 2.5 mi SE 8.1 mph - N/A   Overcast
9:26 AM 30.2 °F 24.3 °F 28.4 °F 93% 30.24 in 3.0 mi SE 5.8 mph - N/A   Mostly Cloudy
9:53 AM 32.0 °F 26.4 °F 28.0 °F 85% 30.24 in 3.0 mi SE 5.8 mph - N/A   Mostly Cloudy
10:53 AM 32.0 °F 28.7 °F 28.9 °F 88% 30.23 in 5.0 mi SSW 3.5 mph - N/A   Overcast
11:20 AM 32.0 °F - 28.4 °F 87% 30.22 in 2.5 mi Calm Calm - N/A   Overcast
11:53 AM 33.1 °F - 28.9 °F 85% 30.21 in 2.5 mi Calm Calm - N/A   Overcast
12:53 PM 34.0 °F - 28.9 °F 82% 30.19 in 2.5 mi Calm Calm - N/A   Haze
1:00 PM 33.8 °F - 28.4 °F 81% 30.19 in 7.0 mi Calm Calm - N/A   Overcast
1:49 PM 33.8 °F - 28.4 °F 81% 30.18 in 7.0 mi Calm Calm - N/A   Overcast
1:53 PM 34.0 °F - 28.9 °F 82% 30.18 in 7.0 mi Calm Calm - N/A   Overcast
2:41 PM 35.6 °F - 30.2 °F 81% 30.17 in 3.0 mi Calm Calm - N/A   Haze
2:53 PM 35.1 °F - 30.0 °F 82% 30.17 in 3.0 mi Calm Calm - N/A   Haze
3:01 PM 35.6 °F - 30.2 °F 81% 30.17 in 3.0 mi Calm Calm - N/A   Haze
3:53 PM 35.1 °F - 30.0 °F 82% 30.18 in 3.0 mi Calm Calm - N/A   Haze
4:53 PM 34.0 °F - 30.9 °F 89% 30.17 in 7.0 mi Calm Calm - N/A   Overcast
5:53 PM 35.1 °F - 30.9 °F 85% 30.17 in 6.0 mi Calm Calm - 0.01 in Rain Light Rain
6:18 PM 35.6 °F - 32.0 °F 87% 30.16 in 5.0 mi Calm Calm - 0.00 in   Overcast
6:26 PM 33.8 °F - 32.0 °F 93% 30.16 in 5.0 mi Calm Calm - 0.00 in Rain Light Rain
6:38 PM 33.8 °F - 32.0 °F 93% 30.16 in 4.0 mi Calm Calm - 0.00 in Rain Light Rain
6:53 PM 34.0 °F - 30.9 °F 89% 30.17 in 5.0 mi Calm Calm - 0.00 in Rain Light Rain
7:25 PM 35.6 °F - 32.0 °F 87% 30.16 in 5.0 mi Calm Calm - 0.01 in   Overcast
7:43 PM 35.6 °F - 32.0 °F 87% 30.16 in 5.0 mi Calm Calm - 0.01 in   Overcast
7:51 PM 35.6 °F - 32.0 °F 87% 30.16 in 4.0 mi Calm Calm - 0.01 in   Overcast
7:53 PM 35.1 °F - 32.0 °F 89% 30.16 in 5.0 mi Calm Calm - 0.01 in   Overcast
8:53 PM 35.1 °F - 32.0 °F 89% 30.15 in 5.0 mi Calm Calm - N/A   Overcast
9:53 PM 35.1 °F - 33.1 °F 92% 30.15 in 4.0 mi Calm Calm - N/A   Overcast
10:14 PM 35.6 °F - 32.0 °F 87% 30.14 in 5.0 mi Calm Calm - N/A   Overcast
10:30 PM 35.6 °F - 33.8 °F 93% 30.14 in 5.0 mi Calm Calm - N/A   Overcast
10:53 PM 36.0 °F - 32.0 °F 86% 30.15 in 5.0 mi Calm Calm - N/A   Overcast
11:03 PM 35.6 °F - 32.0 °F 87% 30.14 in 5.0 mi Calm Calm - N/A   Overcast
11:33 PM 35.6 °F - 32.0 °F 87% 30.13 in 5.0 mi Calm Calm - N/A   Overcast
11:53 PM 35.1 °F - 33.1 °F 92% 30.14 in 4.0 mi Calm Calm - N/A   Overcast